Heure de lever du soleil au 23-01-2018 / 22 ° de l'année/ semaine 0408 h 33 Heure de coucher du soleil au 23-01-2018 / 22 ° de l'année/ semaine 0417 h 31

Compte Facebook Association Météo Centre     Compte Twitter Association Météo Centre - @AssoMétéoCentre     Chaîne Youtube Association Météo Centre     Bouton contact Association Météo Centre 

Gif alerte météo

Choix de la station :
Période à consulter :
Aujourd'hui


 

Conditions météo à Abbeville - Altitude 77m

  

Date du relevé23/01/2018 à 00:00
Visibilité20km
Vent7 km/h O
Température8.4 °C
Humidité77 %
Point de rosée4.6 °C
Pression absolue1012.8 hPa
Pression relative1021.6 hPa
Variation pression+1.6 hPa en hausse puis stationnaire ou en hausse, puis en hausse plus lente


Historique météo des dernières 24 heures à Abbeville


Date - Heure Base des nuages Visibilité Nébulosité Vent Température Humidité Point rosée Pression Précipitations Temps
23/01 00:00 20km 7 km/h O 8.4 °C 77 % 4.6 °C 1021.6 hPa
22/01 23:00 20km 9 km/h O 8.4 °C 79.7 % 5.1 °C 1021.3 hPa
22/01 22:00 20km 6 km/h O 8.5 °C 73.8 % 4.1 °C 1020.8 hPa
22/01 21:00 20km 7 km/h O 8.7 °C 79.2 % 5.3 °C 1020 hPa
22/01 20:00 20km 9 km/h O 8.9 °C 77.1 % 5.1 °C 1019.3 hPa
22/01 19:00 20km 13 km/h O 8.9 °C 79.8 % 5.6 °C 1018.7 hPa 3 mm/12h
22/01 18:00 19km 11 km/h O 8.7 °C 86.1 % 6.5 °C 1017.5 hPa
22/01 17:00 18km 7 km/h O 8.6 °C 83.7 % 6 °C 1016.1 hPa
22/01 16:00 18km 13 km/h ONO 9.3 °C 85 % 6.9 °C 1015.1 hPa
22/01 15:00 15km 11 km/h ONO 9.7 °C 87.9 % 7.8 °C 1013.4 hPa
22/01 14:00 18km 7 km/h NO 9.6 °C 87.9 % 7.7 °C 1012.2 hPa
22/01 13:00 18km 7 km/h NO 9.7 °C 94.1 % 8.8 °C 1011.2 hPa 3 mm/6h
22/01 12:00 15km 6 km/h NNO 9.2 °C 96 % 8.6 °C 1010.1 hPa
22/01 11:00 11km 7 km/h NO 8.9 °C 96.7 % 8.4 °C 1009.3 hPa
22/01 10:00 6km 7 km/h ONO 9.1 °C 98 % 8.8 °C 1008.4 hPa
22/01 09:00 2600m 7 km/h O 10.3 °C 98 % 10 °C 1008 hPa
22/01 08:00 5000m 11 km/h OSO 10.2 °C 98 % 9.9 °C 1008.3 hPa
22/01 07:00 7km 11 km/h O 10.3 °C 96.7 % 9.8 °C 1008.6 hPa 12 mm/12h
22/01 06:00 15km 13 km/h O 10.3 °C 96.7 % 9.8 °C 1008.9 hPa
22/01 05:00 12km 15 km/h O 10.3 °C 98 % 10 °C 1008.9 hPa
22/01 04:00 3400m 19 km/h O 10.4 °C 98 % 10.1 °C 1008.9 hPa
22/01 03:00 7km 19 km/h O 10.6 °C 98 % 10.3 °C 1008.7 hPa
22/01 02:00 7km 19 km/h O 10.5 °C 98 % 10.2 °C 1009 hPa
22/01 01:00 3600m 17 km/h O 10.4 °C 98 % 10.1 °C 1009 hPa 12 mm/6h
22/01 00:00 2500m 20 km/h O 10.4 °C 98 % 10.1 °C 1008.6 hPa

L'association Météo Centre n'est pas responsable de la mise à jour de ces données.



Météo-Centre.fr depuis 2008
Nos informations ne doivent jamais servir à la protection des biens et des personnes. Elles n'engagent pas la responsabilité de l'association Météo Centre.
Contact - Haut de page - Partenaires - Mentions légales